Simultaneous Nadir Overpasses (SNOs) Predictions

Prediction of SNOs between LANDSAT-8 and METOP-A Satellite Orbit:

Table of predicted SNOs for the next 14.0 days since TLE Epoch: 9/25/2015
Index Date (LANDSAT-8) Time (LANDSAT-8) Lat,Lon (LANDSAT-8) SZA (LANDSAT-8 ) Date (METOP-A) Time (METOP-A) Lat,Lon (METOP-A) SZA (METOP-A ) Distance(km) Time Diff (sec)
1 09/26/2015 22:58:22 81.24,-122.62 85.09 09/26/2015 22:57:49 81.24,-122.61 85.08 0.28 33
2 09/26/2015 23:47:48 -81.26, 45.32 94.85 09/26/2015 23:48:28 -81.26, 45.36 94.83 0.60 40
3 09/29/2015 18:32:37 81.24, -56.27 86.19 09/29/2015 18:32:09 81.24, -56.43 86.16 2.74 28
4 09/29/2015 19:22:03 -81.26, 111.70 93.75 09/29/2015 19:22:48 -81.25, 111.55 93.75 2.66 45
5 10/02/2015 14:06:52 81.25, 10.39 87.34 10/02/2015 14:06:28 81.25, 10.49 87.34 1.68 24
6
